カタログに戻る

GUANGCHUAN 02

運用中通信VLEO
NORAD 62112·PAYLOAD·🇨🇳 China

打ち上げ Nov 27, 2024 から Jiuquan Satellite Launch Center

Loading…

次のパス (今後24時間)

TLE

最新Source: Space-Track

元期: Sep 14, 2026, 13:21 UTC

1 62112U 24221B   26257.55645116  .00002040  00000-0  12606-3 0  9992
2 62112  49.9417  86.8723 0005953 347.1050  12.9748 15.14332095 99725

AllMySatでGUANGCHUAN 02をリアルタイム追跡

Download on the App Store